Weather in Ust-Pocha

Russia / Arkhangel'skaya Oblast'     62°09′15″N   38°09′31″E
temp.,
°C
wind,
m/s
gust,
m/s
humid.,
%
clouds,
%
prec.,
mm/h
press.,
hPa
HPBL,
m
28 november, sun
sun2800:00−9ne31094100 0.0 1008308
03:00−9ne41287100 0.0 1007438
06:00−9ne51483100 0.0 1005517
09:00−10ne51482100 0.0 1005522
12:00−10ne41381100 0.0 1005470
15:00−10nne41283100 0.0 1004475
18:00−11nne41189100 0.4 1005412
21:00−11n41090100 0.9 1005383
29 november, mon
mon2900:00−11n3888100 0.1 1007368
03:00−12n379199 0.1 1009316
06:00−13n2795100 0.0 1011219
09:00−15n119895 0.0 101319
12:00−13ne15945 0.0 1014150
15:00−16ne119872 0.0 101412
18:00−15ene31096100 0.0 1013240
21:00−14ene41293100 0.0 1011369
30 november, tue
tue3000:00−14ene4139299 0.0 1008429
03:00−13ene51590100 0.0 1004486
06:00−12ene51588100 0.0 1000519
09:00−12ene51588100 0.0 996523
12:00−11ne51489100 0.0 992509
15:00−11ne51488100 0.1 987578
18:00−11ne51389100 0.0 985570
21:00−10ne41291100 0.2 983550
1 december, wed
wed100:00−10nne41091100 0.3 981514
03:00−10nne389398 0.5 981459
06:00−10n269489 0.3 982314
09:00−11nnw1496100 0.4 983186
12:00−10nw129381 0.2 984175
15:00−10w139784 0.3 98485
18:00−11wsw149787 0.1 985106
21:00−11wsw139791 0.3 986110
2 december, thu
thu200:00−10wsw1495100 0.3 986193
03:00−9sw2595100 0.8 986236
06:00−8wsw279697 0.3 986244
09:00−8wsw499499 0.6 987473
12:00−9wsw4109296 0.1 989462
15:00−10wsw4109493 0.1 990362
18:00−12sw399680 0.0 992237
21:00−13sw389768 0.0 993193